This demonstration page uses our WeatherBlox Daily Observations layout. Learn more.

Hourly Observations for January 14, 2020

Temp ( °F °C ) Dew Point ( °F °C ) Humidity (%) Winds ( mph kmh ) Pressure ( in mb ) Visibility ( mi km ) Precip ( " mm )
12:10 am 00:10 Cloudy with Mist and Fog 31 -0.6 30 -1.1 96 96 SSW 5 7 30.08 1019 1.5 2.41401 0 0
12:20 am 00:20 Cloudy with Mist and Fog 32 0 30 -1.1 92 92 SW 6 9 30.08 1019 3 4.82802 0 0
12:29 am 00:29 Cloudy with Mist and Fog 32 0 30 -1.1 92 92 SSW 7 11 30.08 1019 6 9.65604 0 0
12:39 am 00:39 Cloudy with Mist and Fog 33 0.6 30 -1.1 89 89 SW 7 11 30.09 1019 6 9.65604 0 0
12:49 am 00:49 Cloudy with Mist and Fog 34 1 30 -1 87 87 SW 8 13 30.08 1019 6 9.65604 0 0
12:54 am 00:54 Cloudy with Mist and Fog 33 0.6 31 -0.6 92 92 SW 9 15 30.06 1018 6 9.65604 0 0
1:52 am 01:52 Cloudy with Mist and Fog 34 1 30 -1 87 87 SW 7 11 30.09 1019 5 8.0467 0 0
1:54 am 01:54 Cloudy with Mist and Fog 33 0.6 31 -0.6 92 92 WSW 8 13 30.08 1019 5 8.0467 0 0
2:54 am 02:54 Cloudy with Mist and Fog 31 -0.6 29 -1.7 92 92 SW 5 7 30.09 1019 3 4.82802 0 0
3:14 am 03:14 Cloudy with Mist and Fog 31 -0.6 29 -1.7 92 92 SSW 6 9 30.13 1020 2.5 4.02335 0 0
3:32 am 03:32 Cloudy with Mist and Fog 30 -1.1 29 -1.7 96 96 SW 6 9 30.14 1020 1.25 2.011675 0 0
3:39 am 03:39 Mostly Cloudy with Mist and Fog 30 -1.1 29 -1.7 96 96 SW 7 11 30.14 1020 0.75 1.207005 0 0
3:54 am 03:54 Mostly Cloudy with Freezing Fog 30 -1.1 28 -2.2 92 92 W 5 7 30.11 1020 0.5 0.80467 0 0
4:03 am 04:03 Mostly Cloudy with Freezing Fog 30 -1.1 28 -2.2 92 92 W 5 7 30.16 1021 0.25 0.402335 0 0
4:14 am 04:14 Mostly Cloudy with Freezing Fog 29 -1.7 28 -2.2 96 96 WNW 3 6 30.16 1021 0.5 0.80467 0 0
4:25 am 04:25 Mostly Cloudy with Mist and Fog 29 -1.7 28 -2.2 96 96 W 5 7 30.16 1021 1 1.60934 0 0
4:42 am 04:42 Cloudy with Mist and Fog 28 -2.2 26 -3.3 92 92 W 7 11 30.17 1022 0.75 1.207005 0 0
4:52 am 04:52 Mostly Cloudy with Mist and Fog 27 -3 25 -4 93 93 WSW 5 7 30.17 1022 1.25 2.011675 0 0
4:54 am 04:54 Mostly Cloudy with Mist and Fog 27 -2.8 25 -3.9 92 92 WSW 3 6 30.14 1021 1.5 2.41401 0 0
5:01 am 05:01 Mostly Cloudy with Mist and Fog 27 -2.8 25 -3.9 92 92 WNW 3 6 30.18 1022 3 4.82802 0 0
5:08 am 05:08 Partly Cloudy with Mist and Fog 27 -2.8 25 -3.9 92 92 WNW 6 9 30.18 1022 4 6.43736 0 0
5:54 am 05:54 Clear 24 -4.4 21 -6.1 88 88 NNW 13 20 30.18 1022 9 14.48406 0 0
6:54 am 06:54 Clear 21 -6.1 16 -8.9 81 81 NNW 10 17 30.22 1023 10 16.0934 0 0
7:54 am 07:54 Sunny 18 -7.8 14 -10 84 84 NNW 5 7 30.23 1024 10 16.0934 0 0
8:54 am 08:54 Sunny 21 -6.1 16 -8.9 81 81 NW 6 9 30.24 1024 10 16.0934 0 0
9:54 am 09:54 Sunny 24 -4.4 17 -8.3 75 75 N 8 13 30.24 1024 10 16.0934 0 0
10:54 am 10:54 Sunny 26 -3.3 19 -7.2 75 75 NNE 13 20 30.23 1024 10 16.0934 0 0
11:54 am 11:54 Sunny 28 -2.2 21 -6.1 75 75 NNE 8 13 30.2 1023 10 16.0934 0 0
12:54 pm 12:54 Sunny 30 -1.1 21 -6.1 69 69 NE 7 11 30.16 1022 10 16.0934 0 0
1:54 pm 13:54 Sunny 31 -0.6 22 -5.6 69 69 ENE 8 13 30.13 1020 10 16.0934 0 0
2:54 pm 14:54 Sunny 32 0 23 -5 69 69 E 9 15 30.11 1020 10 16.0934 0 0
3:54 pm 15:54 Sunny 32 0 22 -5.6 66 66 E 8 13 30.1 1019 10 16.0934 0 0
4:54 pm 16:54 Sunny 30 -1.1 22 -5.6 72 72 E 9 15 30.1 1019 10 16.0934 0 0
5:54 pm 17:54 Clear 27 -2.8 21 -6.1 78 78 E 7 11 30.08 1019 10 16.0934 0 0
6:54 pm 18:54 Mostly Cloudy 29 -1.7 23 -5 78 78 E 8 13 30.08 1019 10 16.0934 0 0
7:39 pm 19:39 Cloudy with Light Wintry Mix 29 -1.7 24 -4.4 82 82 ENE 6 9 30.11 1020 5 8.0467 0.001 0.001
7:54 pm 19:54 Cloudy with Light Wintry Mix 29 -1.7 25 -3.9 85 85 E 8 13 30.08 1019 6 9.65604 0.001 0.001
8:54 pm 20:54 Cloudy 30 -1.1 25 -3.9 82 82 E 7 11 30.04 1017 10 16.0934 0.001 0.001
9:54 pm 21:54 Cloudy 31 -0.6 26 -3.3 82 82 ENE 3 6 30.03 1017 10 16.0934 0 0
10:54 pm 22:54 Cloudy 31 -0.6 27 -2.8 85 85 NE 7 11 30.03 1017 10 16.0934 0 0
11:18 pm 23:18 Cloudy 32 0 27 -2.8 82 82 NE 3 6 30.05 1018 10 16.0934 0 0
11:54 pm 23:54 Cloudy 32 0 27 -2.8 82 82 NE 5 7 30.01 1016 10 16.0934 0 0

Powered by AerisWeather